Regional Weather Roundup
Issued by NWS

Home | Current Version | Previous Version | Text Only | Print | Product List | Glossary Off
Versions: 1 2 3 4 5 6 7 8 9 10 11 12 13 14 15 16 17 18 19 20 21 22 23 24 25 26 27 28 29 30 31 32 33 34 35 36 37 38 39 40 41 42 43 44 45 46 47 48 49 50

000
ASUS43 KMPX 292101
RWRMN
WEATHER ROUNDUP FOR MINNESOTA
NATIONAL WEATHER SERVICE TWIN CITIES/CHANHASSEN MN
400 PM CDT FRI MAY 29 2015


NOTE: "FAIR" INDICATES FEW OR NO CLOUDS BELOW 12,000 FEET WITH NO
SIGNIFICANT WEATHER AND/OR OBSTRUCTIONS TO VISIBILITY. N/A MEANS
CURRENT SKY AND/OR WEATHER CONDITIONS ARE NOT AVAILABLE.

MNZ060>063-068>070-292200-
   Twin Cities Metro

CITY           SKY/WX    TMP DP  RH WIND       PRES   REMARKS
TWIN CITIES    RAIN      66  63  90 N10       29.90S FOG
ST PAUL        LGT RAIN  66  63  90 N8        29.90S
CRYSTAL        LGT RAIN  66  63  90 N7        29.90S FOG
BLAINE         LGT RAIN  66  66 100 NW12      29.91S
LAKEVILLE      CLOUDY    66  63  88 N3        29.91R
EDEN PRAIRIE   LGT RAIN  65  62  90 N9        29.89S
SOUTH ST PAUL  CLOUDY    67  64  90 N7        29.90S
LAKE ELMO      LGT RAIN  64  63  94 N8        29.91S
$$
MNZ001>005-007-008-013>017-022>024-027-028-292200-
   Northwest Minnesota

CITY           SKY/WX    TMP DP  RH WIND       PRES   REMARKS
BEMIDJI        CLOUDY    53  41  65 N10       30.09S
HALLOCK        MOSUNNY   54  34  47 N22G30    30.19S
ROSEAU         SUNNY     55  39  54 N16G25    30.14S
WARROAD        SUNNY     54  39  58 NW14G23   30.14R
THIEF RVR FALL MOSUNNY   54  37  54 N18G24    30.15S
CROOKSTON      MOSUNNY   54  39  58 N22G29    30.16S
FOSSTON        PTSUNNY   54  45  71 N22G28    30.13S
DETROIT LAKES  PTSUNNY   52  41  66 N10G25    30.10F
MOORHEAD       PTSUNNY   52  43  71 N21G29    30.15S
PARK RAPIDS    CLOUDY    52  41  66 N20G25    30.06S
MAHNOMEN       CLOUDY    50  42  74 N20       30.12S
$$
MNZ006-009>011-018-025>026-292200-
   North Central Minnesota

CITY           SKY/WX    TMP DP  RH WIND       PRES   REMARKS
BAUDETTE       MOSUNNY   53  40  61 N22G29    30.11R
FLAG ISLAND    MOSUNNY   50  37  62 N21G29    30.12R
INTL FALLS     CLOUDY    52  42  69 NW12      30.06S
WASKISH        PTSUNNY   55  45  67 N9        30.09S
BIG FORK       PTSUNNY   57  45  62 NW8       30.04S
LONGVILLE      CLOUDY    52  45  76 N5        30.04S
GRAND RAPIDS   CLOUDY    52  45  76 NW17      30.03S
CRANE LAKE     CLOUDY    50  46  87 N9G17     30.04S
ORR            CLOUDY    52  43  71 NW8       30.01R
COOK           CLOUDY    52  46  82 N9        30.02S
WALKER         CLOUDY    50  42  73 NW12      30.07S
$$
MNZ012-019>021-037-292200-
   Northeast Minnesota

CITY           SKY/WX    TMP DP  RH WIND       PRES   REMARKS
DULUTH         CLOUDY    57  52  83 N14       29.95R
HIBBING        CLOUDY    52  48  86 N14       30.01R
EVELETH        CLOUDY    52  46  82 NW13G18   30.01R
DULUTH HARBOR  LGT RAIN  63  57  82 NW13      29.95R
TWO HARBORS    DRIZZLE   63  57  82 NW12G20   29.92R
SILVER BAY     DRIZZLE   63  54  72 NW5       29.91R
GRAND MARAIS     N/A     63  53  70 VRB7      29.88R
G MARAIS ARPRT DRIZZLE   55  48  76 NW12G20   29.92S
$$
MNZ029>031-032-039>041-046>048-054>057-064-292200-
   West Central Minnesota

CITY           SKY/WX    TMP DP  RH WIND       PRES   REMARKS
FERGUS FALLS   CLOUDY    50  43  76 N13G22    30.10R
WHEATON        CLOUDY    46  41  81 N22G33    30.13R
MORRIS         CLOUDY    52  48  87 N26       30.05R
ALEXANDRIA     CLOUDY    52  47  83 N17       30.05R
ELBOW LAKE     CLOUDY    51  45  79 N21G26    30.07R
WADENA         CLOUDY    54  46  76 N15G21    30.04S
GLENWOOD       DRIZZLE   54  50  87 N17G24    30.03R
APPLETON       RAIN      52  46  82 N23G31    30.05R
BENSON         LGT RAIN  54  48  82 N17G24    30.03R
ORTONVILLE     LGT RAIN  46  43  87 N28G35    30.07S
MADISON        LGT RAIN  48  46  93 N22G33    30.06R
WILLMAR        LGT RAIN  55  55 100 N21G29    30.00R
$$
MNZ033>034-036-042>043-049>051-058-059-292200-
   Central Minnesota

CITY           SKY/WX    TMP DP  RH WIND       PRES   REMARKS
ST CLOUD       LGT RAIN  57  55  93 N18G24    29.97R
SAUK CENTRE    DRIZZLE   52  49  89 N20G29    30.01R
PAYNESVILLE    LGT RAIN  52  51  98 NW12G23   29.99R
AITKIN         CLOUDY    54  46  76 NW8G16    30.00S
PINE RIVER     CLOUDY    52  45  76 N13G24    30.07S
BRAINERD       CLOUDY    52  47  83 N17G24    30.03R
STAPLES        CLOUDY    52  45  76 N15G22    30.04R
LONG PRAIRIE   CLOUDY    52  48  87 N12G18    30.02S
LITTLE FALLS   DRIZZLE   52  46  82 N6        30.01R
LITCHFIELD     LGT RAIN  61  61 100 N12G17    29.96R
BUFFALO        LGT RAIN  62  59  88 N10G18    29.94S
MAPLE LAKE     LGT RAIN  64  62  94 N12       29.95R
$$
MNZ037-044-045-052-053-292200-
   East Central Minnesota

CITY           SKY/WX    TMP DP  RH WIND       PRES   REMARKS
PRINCETON      DRIZZLE   63  59  88 N14       29.96R
MORA           DRIZZLE   59  54  82 N9        29.97R
CAMBRIDGE      LGT RAIN  64  55  72 N9        29.93R
RUSH CITY      LGT RAIN  63  60  91 N9        29.93R
MOOSE LAKE     CLOUDY    55  54  94 N14       29.96R FOG
HINCKLEY       LGT RAIN  61  59  94 N12G17    29.94S
CLOQUET        CLOUDY    55  52  88 NW13G21   29.97S
MCGREGOR       CLOUDY    52  50  93 NW12G20   30.01R
$$
MNZ071>073-080-081-089-090-097-098-292200-
   Southwest Minnesota

CITY           SKY/WX    TMP DP  RH WIND       PRES   REMARKS
MONTEVIDEO     DRIZZLE   52  52 100 N21G26    30.03R
GRANITE FALLS  RAIN      54  52  92 NW20G29   30.01S
CANBY          LGT RAIN  47  45  93 N20G26    30.06S
MARSHALL       CLOUDY    48  43  81 N28       30.01R
REDWOOD FALLS  LGT RAIN  60  58  92 NW12      29.95R FOG
OLIVIA         LGT RAIN  57  54  88 N14G21    29.95S
PIPESTONE      LGT RAIN  52  48  87 N13G26    30.00R
WINDOM         LGT RAIN  57  55  94 NW22G28   29.95R
WORTHINGTON    CLOUDY    55  50  82 N23G29    29.96S
JACKSON        CLOUDY    61  59  94 NW20G31   29.93R
TRACY          LGT RAIN  52  51  97 NW21G28   30.00R
SLAYTON        DRIZZLE   51  51 100 N24G32    29.99S
$$
MNZ065>067-074>077-082>085-091>093-292200-
   South Central Minnesota

CITY           SKY/WX    TMP DP  RH WIND       PRES   REMARKS
MANKATO        CLOUDY    66  63  88 NE8       29.88F
NEW ULM        DRIZZLE   64  63  94 N12       29.91S
ST JAMES       RAIN      64  64 100 NW17      29.92R
FAIRMONT       CLOUDY    68  61  77 NW16      29.89R
GLENCOE        RAIN      64  64  97 N6        29.92S
FARIBAULT      CLOUDY    66  64  94 NE3       29.90F
OWATONNA       CLOUDY    68  64  88 CALM      29.89F
WASECA         CLOUDY    68  63  83 N8        29.90S
ALBERT LEA     CLOUDY    72  64  78 W3        29.88F
$$
MNZ078>079-086>088-094>096-292200-
   Southeast Minnesota

CITY           SKY/WX    TMP DP  RH WIND       PRES   REMARKS
ROCHESTER      RAIN      65  63  93 N12       29.90F FOG
RED WING       RAIN      68  66  94 W3        29.89S
STANTON        RAIN      66  62  84 CALM      29.89R
DODGE CENTER   CLOUDY    66  63  88 NE6       29.90S
WINONA         CLOUDY    72  64  78 N5        29.87F
AUSTIN         LGT RAIN  70  66  88 W6        29.88F
PRESTON        CLOUDY    74  63  68 SW14      29.89F
$$
ABBREVIATIONS USED IN REMARKS
   TC - TEMPERATURES IN CELSIUS
  WCI - WIND CHILL INDEX
   HX - HEAT INDEX
  VSB - VISIBILITY
$$



USA.gov is the U.S. government's official web portal to all federal, state and local government web resources and services.